Regional Weather Roundup
Issued by NWS

Home | Current Version | Previous Version | Graphics & Text | Print | Product List | Glossary On
Versions: 1 2 3 4 5 6 7 8 9 10 11 12 13 14 15 16 17 18 19 20 21 22 23 24 25 26 27 28 29 30 31 32 33 34 35 36 37 38 39 40 41 42 43 44 45 46 47 48 49 50
000
ASUS43 KLMK 200710
RWRKY
KENTUCKY REGIONAL WEATHER ROUNDUP
NATIONAL WEATHER SERVICE LOUISVILLE KY
300 AM EDT MON OCT 20 2014

NOTE "FAIR" INDICATES FEW OR NO CLOUDS BELOW 12,000 FEET
WITH NO SIGNIFICANT WEATHER AND/OR OBSTRUCTIONS TO VISIBILITY.

KYZ001>023-026-027-061>063-070>075-200800-
WESTERN AND SOUTH CENTRAL KENTUCKY

CITY           SKY/WX    TMP DP  RH WIND       PRES   REMARKS
PADUCAH        FAIR      48  45  89 SW3       30.06F
HENDERSON      FAIR      43  39  87 S3        30.06F
OWENSBORO      FAIR      46  45  97 S3        30.06F
HOPKINSVILLE   FAIR      48  48 100 CALM      30.07F FOG
BOWLING GREEN  FAIR      43  41  93 CALM      30.07F
GLASGOW        FAIR      42  42 100 CALM      30.08F FOG
$$

KYZ024-025-028>034-038-045-046-053-200800-
NORTH CENTRAL KENTUCKY

CITY           SKY/WX    TMP DP  RH WIND       PRES   REMARKS
LOUISVILLE/SDF MOCLDY    47  43  86 SE8       30.06F
LOUISVILLE/LOU FAIR      46  43  89 CALM      30.07F
FORT KNOX      CLOUDY    44  42  92 S2        30.05F
$$

KYZ035>037-039>044-047>052-055>060-089>105-200800-
NORTHEAST KENTUCKY

CITY           SKY/WX    TMP DP  RH WIND       PRES   REMARKS
LEXINGTON      FAIR      46  40  79 S6        30.06F
COVINGTON      CLOUDY    46  40  79 SW5       30.04F
FRANKFORT      FAIR      43  40  89 CALM      30.05F
$$

KYZ054-064>069-076>088-106>120-200800-
SOUTHEAST KENTUCKY

CITY           SKY/WX    TMP DP  RH WIND       PRES   REMARKS
JACKSON        FAIR      44  40  85 CALM      30.06F
LONDON         FAIR      44  40  85 CALM      30.07F
SOMERSET       FAIR      43  43 100 CALM      30.08F
MIDDLESBORO    CLOUDY    41  41 100 CALM      30.11F
MONTICELLO     FOG       46  43  87 CALM      30.08F VSB 3/4
$$




USA.gov is the U.S. government's official web portal to all federal, state and local government web resources and services.